San Bernardino, CA

5:32 AM PDT on October 22, 2019 (GMT -0700)
San Bernardino International

Weather History for KSBD - September, 2019

Change the Weather History Date:

Wednesday, September 18, 2019

  Actual Average Record
Temperature  
Mean Temperature 74 °F -  
Max Temperature 87 °F 88 °F 105 °F (2016)
Min Temperature 62 °F 57 °F 51 °F (2010)
Cooling Degree Days 10    
Growing Degree Days 24 (Base 50)    
Moisture  
Dew Point 49 °F    
Average Humidity 49    
Maximum Humidity 66    
Minimum Humidity 19    
Precipitation  
Precipitation 0.00 in - - ()
Sea Level Pressure  
Sea Level Pressure 29.92 in    
Wind  
Wind Speed 1 mph ()    
Max Wind Speed 12 mph    
Max Gust Speed -    
Visibility 8.9 miles    
Events      
Averages and records for this station are not official NWS values.
T = Trace of Precipitation, MM = Missing Value Source: Averaged Metar Reports

Daily Weather History Graph

Daily Weather History Graph

Search for Another Location

Airport or City:

Astronomy

Sep. 18, 2019 Rise Set
Actual Time 6:34 AM PDT 6:51 PM PDT
Civil Twilight 6:09 AM PDT 7:16 PM PDT
Nautical Twilight 5:39 AM PDT 7:45 PM PDT
Astronomical Twilight 5:09 AM PDT 8:15 PM PDT
Moon 9:39 PM PDT (9/18) 10:31 AM PDT (9/18)
Length of Visible Light 13h 07m
Length of Day
12h 17m
Waning Gibbous, 82% of the Moon is Illuminated
Sep 18
Waning Gibbous
Sep 21
Last Quarter
Sep 28
New
Oct 5
First Quarter
Oct 13
Full

Hourly Weather History & Observations

Time (PDT) Temp. Dew Point Humidity Pressure Visibility Wind Dir Wind Speed Gust Speed Precip Events Conditions
12:01 AM 68.0 °F 52.3 °F 57% 29.93 in 10.0 mi Calm Calm - N/A   Clear
12:20 AM 68.9 °F 53.1 °F 57% 29.93 in 10.0 mi Calm Calm - N/A   Clear
12:40 AM 68.0 °F 52.0 °F 56% 29.93 in 10.0 mi Calm Calm - N/A   Clear
1:23 AM 68.4 °F 48.4 °F 49% 29.94 in 10.0 mi Calm Calm - N/A   Clear
1:41 AM 68.2 °F 48.2 °F 49% 29.94 in 10.0 mi Calm Calm - N/A   Clear
2:20 AM 67.3 °F 50.9 °F 56% 29.93 in 10.0 mi Calm Calm - N/A   Clear
2:40 AM 67.1 °F 53.4 °F 61% 29.92 in 10.0 mi Calm Calm - N/A   Clear
3:03 AM 66.2 °F 52.0 °F 60% 29.92 in 10.0 mi ESE 3.5 mph - N/A   Clear
3:21 AM 64.0 °F 47.8 °F 56% 29.92 in 10.0 mi Calm Calm - N/A   Clear
3:40 AM 64.2 °F 46.8 °F 53% 29.92 in 10.0 mi Calm Calm - N/A   Clear
4:00 AM 64.2 °F 48.7 °F 57% 29.92 in 10.0 mi Calm Calm - N/A   Clear
4:20 AM 63.9 °F 50.2 °F 61% 29.92 in 10.0 mi South 3.5 mph - N/A   Clear
4:43 AM 63.5 °F 50.5 °F 63% 29.92 in 10.0 mi Calm Calm - N/A   Clear
5:01 AM 63.3 °F 51.4 °F 65% 29.92 in 10.0 mi Calm Calm - N/A   Clear
5:20 AM 62.6 °F 50.5 °F 65% 29.92 in 10.0 mi SSE 3.5 mph - N/A   Clear
5:40 AM 62.6 °F 51.3 °F 66% 29.93 in 10.0 mi Calm Calm - N/A   Clear
6:50 AM 62.6 °F 48.2 °F 59% 29.94 in 7.0 mi Calm Calm - N/A   Clear
7:49 AM 66.2 °F 48.2 °F 52% 29.96 in 7.0 mi Calm Calm - N/A   Clear
8:50 AM 68.0 °F 48.2 °F 49% 29.97 in 5.0 mi Calm Calm - N/A   Haze
9:50 AM 75.2 °F 50.0 °F 41% 29.97 in 6.0 mi Calm Calm - N/A   Haze
10:50 AM 77.0 °F 48.2 °F 36% 29.96 in 6.0 mi Calm Calm - N/A   Haze
11:50 AM 82.4 °F 48.2 °F 30% 29.94 in 6.0 mi Calm Calm - N/A   Haze
1:48 PM 86.0 °F 39.2 °F 19% 29.90 in 7.0 mi WSW 9.2 mph - N/A   Clear
2:59 PM 87.8 °F 41.0 °F 19% 29.88 in 6.0 mi NW 5.8 mph - N/A   Haze
3:48 PM 87.8 °F 44.6 °F 22% 29.86 in 6.0 mi WSW 8.1 mph - N/A   Haze
4:47 PM 86.0 °F 46.4 °F 25% 29.86 in 6.0 mi West 9.2 mph - N/A   Haze
5:47 PM 84.2 °F 48.2 °F 29% 29.86 in 7.0 mi WSW 11.5 mph - N/A   Clear
7:47 PM 75.2 °F 50.0 °F 41% 29.88 in 10.0 mi WSW 10.4 mph - N/A   Clear
8:48 PM 71.6 °F 44.6 °F 38% 29.90 in 10.0 mi SW 5.8 mph - N/A   Clear
9:41 PM 70.7 °F 50.5 °F 49% 29.91 in 10.0 mi SW 4.6 mph - N/A   Clear
10:00 PM 70.2 °F 51.8 °F 52% 29.91 in 10.0 mi WSW 4.6 mph - N/A   Clear
10:20 PM 70.2 °F 52.2 °F 53% 29.91 in 10.0 mi Calm Calm - N/A   Clear
10:40 PM 70.0 °F 52.3 °F 53% 29.91 in 10.0 mi Calm Calm - N/A   Clear
11:03 PM 69.8 °F 52.7 °F 54% 29.91 in 10.0 mi Calm Calm - N/A   Clear
11:21 PM 69.8 °F 51.8 °F 53% 29.91 in 10.0 mi Calm Calm - N/A   Clear
11:40 PM 69.3 °F 51.6 °F 53% 29.90 in 10.0 mi Calm Calm - N/A   Clear